Showing default

GALAXY 30, 46114

Orbit data source: Space-Track

GALAXY 30, 46114 is a payload satellite owned by Intelsat SA (US) (US) in GEO that was launched on Sat, 15 Aug 2020 UTC via an ARIANE 5ECA+ launch vehicle from the French Guiana (FRGUI). Payload-class satellites include a variety of spacecraft equipped with specific instruments for various scientific and technological missions. These include communications satellites like Starlink; space stations such as the ISS; scientific satellites like the Hubble; Earth observation satellites from companies like Planet Labs, Umbra, and HawkEye 360; GPS; miniature CubeSats for education and research; and military/defense satellites.

Loading next visibility...
Identifier
46114, 2020-056C
Orbit
GEO
Country
Flag of USUS
Related business
Manufacturer
NGIS SSG
Mission
Operational Commercial Communications
Bus & Motor
GEOSTAR-2.4E, BT-4?
Mass
3,298 kg wet, ~2,500 kg dry
Launch date (UTC)
2020-08-15 (6 years ago)
Launch vehicle
ARIANE 5ECA+
Launch site
French Guiana (FRGUI)
Object type
Payload
Rocket body
Debris
Shape & HBR
Box + 2 Pan, Unknown HBR
Radar Cross Section
29.373 m², Large (>1 m²)

Expand to show TLE details & history
Last TLE update: 2 days ago

TLE from 2 days ago
0 GALAXY 30
1 46114U 20056C   26171.39489199  .00000032  00000-0  00000+0 0  9992
2 46114   0.0183  12.9122 0002284  75.3591 197.4940  1.00273107 21326
Epoch: 2026-06-20T09:28Z
TLE epoch observation values (Epoch: 2026-06-20T09:28:38.667Z)
Latitude
-0.03724°
Longitude
-125.00156°
Altitude
35,794.942 km
Speed
3.074 km/s
True Right ascension
19h 03m 04s
True Declination
0° 02' 14"
Sunlit
Object was in daylight at epoch
Visualization orbit readout
Latitude
Unknown
Longitude
Unknown
Altitude
Unknown
Speed
Unknown
Apparent Right ascension
Unknown
Apparent Declination
Unknown
Sunlit
N/A
Visualization observer readout
Local Sidereal Time
21:27:07
Azimuth
Unknown
Elevation
Unknown
Doppler factor
Unknown
Orbital elements
Apogee altitude
35,796.925 km
Perigee altitude
35,777.664 km
Semi-major axis
42,165.432 km
Eccentricity
0.00023
Inclination
0.0183°
RAAN
12.9122°
Arg. of periapsis
75.3591°
True anomaly
197.48613°
Mean anomaly
197.494°
Eccentric anomaly
197.49007°
Mean motion
0.25067 °/min
Orbital period
1,436.13 mins
BSTAR
0
Loading maneuver chart data...
Computing Atmospheric mass density...
Loading historical data...
Loading historical data...
Loading historical data...
Loading historical data...
Loading historical data...
Loading historical data...
Loading historical data...
Other satellites on launch #56 in the year 2020 (2020-08-15 UTC)

Documentation

Showing up to 5 results
|